SM2GSR-2 Weather Reports


Display with metric or nautical units.
time (UTC)temp
F
wind
direction
speed
MPH
gust
MPH
rain 1hr
in
rain 24hr
in
rain mn
in
humidity
%
barometer
mb
20260508013004 22 302 0.0 0.0 0.00 0.01 0.00 90 1016.3
20260508012504 22 302 0.0 0.0 0.00 0.01 0.00 90 1016.3
20260508012004 22 302 0.0 0.0 0.00 0.01 0.00 90 1016.2
20260508011504 22 302 0.0 0.0 0.00 0.01 0.00 89 1016.2
20260508010504 22 302 0.0 0.0 0.00 0.01 0.00 90 1016.1
20260508010004 22 302 0.0 0.0 0.00 0.01 0.00 90 1016.1
20260508005503 22 302 0.0 0.0 0.00 0.01 0.00 90 1016.1
20260508005003 22 302 0.0 0.0 0.00 0.01 0.00 89 1016.0
20260508004503 22 302 0.0 0.0 0.00 0.01 0.00 89 1015.9
20260508004002 22 302 0.0 0.0 0.00 0.01 0.00 89 1015.9
20260508003503 23 302 0.0 0.0 0.00 0.01 0.00 89 1015.8
20260508003003 23 302 0.0 0.0 0.00 0.01 0.00 89 1015.8
20260508002502 23 302 0.0 0.0 0.00 0.01 0.00 89 1015.8
20260508002003 23 302 0.0 0.0 0.00 0.01 0.00 89 1015.7
20260508001503 23 302 0.0 0.0 0.00 0.01 0.00 89 1015.7
20260508001003 23 302 0.0 0.0 0.00 0.01 0.00 89 1015.7
20260508000003 23 302 0.0 0.0 0.00 0.01 0.00 89 1015.6
20260507235504 23 302 0.0 0.0 0.00 0.01 0.00 89 1015.5
20260507235003 23 302 0.0 0.0 0.00 0.01 0.00 89 1015.5
20260507234505 23 302 0.0 0.0 0.00 0.01 0.00 89 1015.4
20260507234004 23 302 0.0 0.0 0.00 0.01 0.00 89 1015.4
20260507233505 24 302 0.0 0.0 0.00 0.01 0.00 89 1015.3
20260507233003 24 302 0.0 0.0 0.00 0.01 0.00 89 1015.3
20260507232003 24 302 0.0 0.0 0.00 0.01 0.00 88 1015.2
20260507231503 24 302 0.0 0.0 0.00 0.01 0.00 88 1015.2
20260507231003 24 302 0.0 0.0 0.00 0.01 0.00 88 1015.2
20260507230502 24 302 0.0 0.0 0.00 0.01 0.00 88 1015.0
20260507230003 24 302 0.0 0.0 0.00 0.01 0.00 88 1015.0
20260507225503 24 302 0.0 0.0 0.00 0.01 0.00 88 1015.0
20260507225003 25 302 0.0 0.0 0.00 0.01 0.00 88 1014.9
20260507224504 25 302 0.0 0.0 0.00 0.01 0.00 88 1014.9
20260507224003 25 302 0.0 0.0 0.00 0.01 0.00 88 1014.8
20260507222502 25 302 0.0 0.0 0.00 0.01 0.00 87 1014.7
20260507222003 25 302 0.0 0.0 0.00 0.01 0.00 87 1014.6
20260507221003 26 302 0.0 0.0 0.00 0.01 0.00 87 1014.6
20260507220003 26 302 0.0 0.0 0.00 0.01 0.00 86 1014.5
20260507215003 26 302 0.0 0.0 0.00 0.01 0.01 85 1014.4
20260507214002 26 302 0.0 0.0 0.00 0.01 0.01 84 1014.3
20260507213003 27 302 0.0 0.0 0.00 0.01 0.01 83 1014.2
20260507212503 27 302 0.0 0.0 0.00 0.01 0.01 83 1014.2
20260507212003 27 302 0.0 0.0 0.00 0.01 0.01 82 1014.1
20260507211503 27 302 0.0 0.0 0.00 0.01 0.01 81 1014.0
20260507211002 27 302 0.0 0.0 0.00 0.01 0.01 80 1014.0
20260507210503 28 302 0.0 0.0 0.00 0.01 0.01 79 1013.9
20260507210004 28 302 0.0 0.0 0.00 0.01 0.01 78 1013.8
20260507205502 28 302 0.0 0.0 0.00 0.01 0.01 78 1013.8
20260507205003 28 302 0.0 0.0 0.00 0.01 0.01 78 1013.7
20260507204503 28 302 0.0 0.0 0.00 0.01 0.01 77 1013.6
20260507203503 29 302 0.0 0.0 0.00 0.01 0.01 76 1013.5
20260507203003 29 302 0.0 0.0 0.00 0.01 0.01 76 1013.5
20260507202503 29 302 0.0 0.0 0.00 0.01 0.01 75 1013.4
20260507201503 30 302 0.0 0.0 0.00 0.01 0.01 73 1013.3
20260507201003 30 302 0.0 0.0 0.00 0.01 0.01 72 1013.3
20260507200003 31 302 0.0 0.0 0.00 0.01 0.01 70 1013.1
20260507195003 32 302 0.0 0.0 0.00 0.01 0.01 68 1013.0
20260507194503 32 302 0.0 0.0 0.00 0.01 0.01 68 1012.9
20260507193004 34 303 0.0 0.0 0.00 0.01 0.01 64 1012.7
20260507192503 34 303 0.0 0.0 0.00 0.01 0.01 63 1012.6
20260507192002 35 303 0.0 0.0 0.00 0.01 0.01 61 1012.6
20260507191503 36 304 0.0 0.0 0.00 0.01 0.01 60 1012.5
20260507190503 38 304 0.0 0.0 0.00 0.01 0.01 56 1012.4
20260507190004 39 304 0.0 0.0 0.00 0.01 0.01 53 1012.3
20260507185503 40 304 0.0 0.0 0.00 0.01 0.01 52 1012.3
20260507184503 42 304 0.0 0.0 0.00 0.01 0.01 49 1012.1
20260507184003 42 304 0.0 0.0 0.00 0.01 0.01 47 1012.1
20260507183503 42 304 0.0 0.0 0.00 0.01 0.01 48 1012.0
20260507182503 42 306 0.0 0.0 0.00 0.01 0.01 47 1011.9
20260507182003 42 313 0.0 0.0 0.00 0.01 0.01 46 1011.8
20260507181503 42 292 0.0 0.0 0.00 0.02 0.01 47 1011.8
20260507180503 41 286 0.0 0.0 0.00 0.02 0.01 48 1011.7
20260507180003 41 286 0.0 0.0 0.00 0.02 0.01 48 1011.6
20260507175503 42 286 0.0 0.0 0.00 0.02 0.01 48 1011.6
20260507175003 42 286 0.0 0.0 0.00 0.02 0.01 46 1011.5
20260507174003 43 286 0.0 0.0 0.00 0.02 0.01 45 1011.3
20260507173502 43 286 0.0 0.0 0.00 0.02 0.01 46 1011.3
20260507173004 43 286 0.0 0.0 0.00 0.02 0.01 44 1011.2
20260507172503 44 286 0.0 0.0 0.00 0.02 0.01 44 1011.2
20260507172003 44 286 0.0 0.0 0.00 0.02 0.01 42 1011.2
20260507171003 45 283 0.0 1.0 0.00 0.02 0.01 40 1011.0
20260507170503 46 282 1.0 6.0 0.00 0.02 0.01 38 1011.0
20260507165003 47 288 1.0 8.0 0.00 0.02 0.01 38 1010.8
20260507164504 46 303 0.0 1.0 0.00 0.02 0.01 40 1010.7
20260507163503 46 322 4.0 10.0 0.00 0.02 0.01 40 1010.7
20260507163003 46 294 0.0 1.0 0.00 0.02 0.01 40 1010.6
20260507162503 47 297 0.0 1.0 0.00 0.02 0.01 39 1010.6
20260507162003 47 320 0.0 1.0 0.00 0.02 0.01 40 1010.5
20260507161503 47 327 0.0 1.0 0.00 0.02 0.01 39 1010.5
20260507160503 47 330 5.0 9.0 0.00 0.02 0.01 38 1010.4
20260507160003 47 293 5.0 10.0 0.00 0.02 0.01 38 1010.3
20260507155503 47 309 2.0 8.0 0.00 0.02 0.01 40 1010.3
20260507155003 46 312 0.0 5.0 0.00 0.02 0.01 40 1010.3
20260507154503 46 302 5.0 8.0 0.00 0.02 0.01 39 1010.2
20260507154003 46 318 2.0 12.0 0.00 0.02 0.01 39 1010.2
20260507153504 46 314 1.0 9.0 0.00 0.02 0.01 39 1010.2
20260507153003 47 304 4.0 9.0 0.00 0.02 0.01 37 1010.1
20260507152503 47 308 4.0 8.0 0.00 0.02 0.01 36 1010.1
20260507152003 47 289 5.0 13.0 0.00 0.02 0.01 37 1010.0
20260507151503 47 302 7.0 12.0 0.00 0.02 0.01 36 1010.0
20260507150503 46 327 0.0 1.0 0.00 0.02 0.01 40 1009.9
20260507150002 46 325 0.0 0.0 0.00 0.02 0.01 40 1009.8
20260507145503 46 324 0.0 0.0 0.00 0.03 0.01 41 1009.8
20260507145003 46 324 0.0 5.0 0.00 0.03 0.01 41 1009.9
20260507144503 46 348 1.0 5.0 0.00 0.03 0.01 43 1009.9
20260507144002 45 112 0.0 0.0 0.00 0.03 0.01 48 1009.9
20260507143503 46 112 0.0 0.0 0.00 0.03 0.01 50 1009.9
20260507143003 46 81 0.0 1.0 0.00 0.03 0.01 49 1009.8
20260507142003 47 36 5.0 12.0 0.00 0.03 0.01 48 1009.7
20260507141504 47 57 6.0 12.0 0.00 0.03 0.01 45 1009.7
20260507141003 47 334 8.0 15.0 0.00 0.03 0.01 43 1009.7
20260507140003 45 196 0.0 0.0 0.00 0.03 0.01 48 1009.5
20260507135503 44 196 0.0 0.0 0.00 0.03 0.01 52 1009.5
20260507135003 44 196 0.0 0.0 0.00 0.03 0.01 52 1009.5
20260507134003 44 196 0.0 0.0 0.00 0.03 0.01 52 1009.5
20260507133503 44 196 2.0 5.0 0.00 0.03 0.01 52 1009.5
20260507132503 44 198 0.0 0.0 0.00 0.03 0.01 52 1009.4
20260507132003 44 198 0.0 0.0 0.00 0.03 0.01 51 1009.3
20260507131003 44 214 2.0 7.0 0.00 0.03 0.01 51 1009.4
20260507130503 44 210 0.0 0.0 0.00 0.03 0.01 51 1009.4
20260507130003 44 210 0.0 0.0 0.00 0.03 0.01 50 1009.4
20260507125503 44 210 0.0 0.0 0.00 0.03 0.01 50 1009.3
20260507125003 45 212 0.0 0.0 0.00 0.03 0.01 51 1009.3
20260507124503 45 212 1.0 3.0 0.00 0.03 0.01 52 1009.3
20260507124003 45 186 0.0 6.0 0.00 0.03 0.01 54 1009.4
20260507122503 43 213 0.0 5.0 0.00 0.03 0.01 56 1009.2
20260507122004 43 215 0.0 0.0 0.00 0.03 0.01 56 1009.2
20260507121503 43 207 0.0 0.0 0.00 0.03 0.01 56 1009.2
20260507121003 43 213 0.0 0.0 0.00 0.03 0.01 55 1009.2
20260507120003 44 234 0.0 0.0 0.00 0.03 0.01 56 1009.2
20260507115003 44 314 0.0 0.0 0.00 0.03 0.01 51 1009.1
20260507114503 45 317 0.0 0.0 0.00 0.03 0.01 49 1009.1
20260507114003 45 317 0.0 0.0 0.00 0.03 0.01 50 1009.1
20260507113503 44 317 0.0 0.0 0.00 0.03 0.01 52 1009.0
20260507112003 43 316 0.0 0.0 0.00 0.03 0.01 52 1009.0
20260507111503 43 342 0.0 7.0 0.00 0.03 0.01 53 1009.0
20260507110503 43 236 0.0 0.0 0.00 0.03 0.01 51 1008.9
20260507110003 43 236 0.0 0.0 0.00 0.03 0.01 50 1008.9
20260507105003 46 224 3.0 12.0 0.00 0.03 0.01 49 1008.9
20260507104503 48 289 2.0 13.0 0.00 0.03 0.01 46 1008.8
20260507104004 49 322 2.0 13.0 0.00 0.03 0.01 44 1008.7
20260507103503 48 276 1.0 6.0 0.00 0.03 0.01 43 1008.6
20260507103004 48 296 1.0 7.0 0.00 0.03 0.01 43 1008.5
20260507102502 47 66 0.0 2.0 0.00 0.03 0.01 45 1008.5
20260507102003 46 188 0.0 0.0 0.00 0.03 0.01 46 1008.5
20260507101503 46 264 0.0 5.0 0.00 0.03 0.01 47 1008.6
20260507101003 46 300 6.0 9.0 0.00 0.03 0.01 47 1008.6
20260507100503 46 291 4.0 12.0 0.00 0.03 0.01 47 1008.5
20260507100003 46 340 4.0 12.0 0.00 0.03 0.01 47 1008.5
20260507095502 46 307 5.0 15.0 0.00 0.03 0.01 49 1008.4
20260507095003 46 258 5.0 14.0 0.00 0.03 0.01 47 1008.4
20260507094503 46 314 5.0 10.0 0.01 0.03 0.01 48 1008.4
20260507094003 45 305 3.0 9.0 0.01 0.03 0.01 49 1008.5
20260507093503 44 268 1.0 9.0 0.01 0.03 0.01 50 1008.5
20260507093003 44 320 1.0 7.0 0.01 0.03 0.01 49 1008.4
20260507092503 44 312 3.0 8.0 0.01 0.03 0.01 50 1008.4
20260507092003 44 348 4.0 8.0 0.01 0.03 0.01 49 1008.4
20260507091503 45 356 1.0 7.0 0.01 0.03 0.01 52 1008.4
20260507090504 45 33 0.0 7.0 0.01 0.03 0.01 53 1008.4
20260507090004 45 328 1.0 6.0 0.01 0.03 0.01 51 1008.4
20260507085503 45 246 0.0 9.0 0.01 0.03 0.01 50 1008.4
20260507085003 43 176 2.0 8.0 0.01 0.03 0.01 54 1008.3
20260507084003 42 319 0.0 0.0 0.00 0.02 0.00 54 1008.4
20260507083503 41 319 0.0 0.0 0.00 0.02 0.00 55 1008.4
20260507083003 42 49 0.0 0.0 0.00 0.02 0.00 54 1008.3
20260507082503 42 51 0.0 0.0 0.00 0.02 0.00 58 1008.4
20260507082003 43 51 0.0 0.0 0.00 0.02 0.00 57 1008.4
20260507081003 43 68 1.0 5.0 0.00 0.02 0.00 59 1008.4
20260507080503 43 67 1.0 5.0 0.00 0.02 0.00 61 1008.4
20260507080004 43 73 3.0 10.0 0.00 0.02 0.00 61 1008.3
20260507075503 44 79 0.0 3.0 0.00 0.02 0.00 60 1008.3
20260507075003 44 80 1.0 3.0 0.00 0.02 0.00 59 1008.3
20260507074003 43 94 0.0 3.0 0.00 0.02 0.00 64 1008.3
20260507073503 43 71 3.0 6.0 0.00 0.02 0.00 63 1008.3
20260507073003 42 88 0.0 0.0 0.00 0.02 0.00 66 1008.3
20260507072503 41 92 0.0 0.0 0.00 0.02 0.00 70 1008.3
20260507072003 41 92 0.0 5.0 0.00 0.02 0.00 67 1008.3
20260507070503 40 63 0.0 0.0 0.00 0.02 0.00 71 1008.2
20260507070005 39 69 1.0 5.0 0.00 0.02 0.00 71 1008.3
20260507065503 39 50 1.0 5.0 0.00 0.02 0.00 70 1008.2
20260507065003 39 46 0.0 3.0 0.00 0.02 0.00 71 1008.3
20260507064503 38 57 0.0 0.0 0.00 0.02 0.00 72 1008.2
20260507064003 38 57 0.0 2.0 0.00 0.02 0.00 72 1008.2
20260507063503 38 70 0.0 5.0 0.00 0.02 0.00 75 1008.1
20260507063003 38 70 0.0 5.0 0.00 0.02 0.00 74 1008.1
20260507062503 38 70 0.0 3.0 0.00 0.02 0.00 74 1008.1
20260507062004 38 71 0.0 0.0 0.00 0.02 0.00 75 1008.1
20260507061503 38 73 0.0 3.0 0.00 0.02 0.00 76 1008.0
20260507061003 37 73 2.0 5.0 0.00 0.02 0.00 76 1008.0
20260507060503 37 73 2.0 5.0 0.00 0.02 0.00 78 1008.0
20260507060003 37 46 0.0 0.0 0.00 0.02 0.00 80 1008.0
20260507054503 35 318 0.0 0.0 0.00 0.02 0.00 87 1008.0
20260507053503 34 318 0.0 0.0 0.00 0.02 0.00 90 1007.9
20260507052503 32 317 0.0 0.0 0.00 0.02 0.00 87 1007.9
20260507052003 32 317 0.0 0.0 0.00 0.02 0.00 86 1007.9
20260507051003 31 317 0.0 0.0 0.00 0.02 0.00 86 1007.9
20260507050503 31 317 0.0 0.0 0.00 0.02 0.00 86 1008.0
20260507050003 30 317 0.0 0.0 0.00 0.02 0.00 86 1007.9
20260507045503 30 317 0.0 0.0 0.00 0.02 0.00 86 1007.9
20260507045003 29 317 0.0 0.0 0.00 0.02 0.00 86 1007.9
20260507044503 29 317 0.0 0.0 0.00 0.02 0.00 86 1007.8
20260507044003 28 317 0.0 0.0 0.00 0.02 0.00 86 1007.9
20260507043503 28 317 0.0 0.0 0.00 0.02 0.00 86 1007.9
20260507043003 27 317 0.0 0.0 0.00 0.02 0.00 87 1007.9
20260507042503 27 317 0.0 0.0 0.00 0.02 0.00 87 1007.9
20260507042003 26 317 0.0 0.0 0.00 0.02 0.00 88 1007.9
20260507041503 26 317 0.0 0.0 0.00 0.02 0.00 88 1007.9
20260507041004 26 317 0.0 0.0 0.00 0.02 0.00 88 1007.9
20260507040503 25 317 0.0 0.0 0.00 0.02 0.00 88 1007.9
20260507040003 25 317 0.0 0.0 0.00 0.02 0.00 88 1007.9
20260507035503 25 317 0.0 0.0 0.00 0.02 0.00 89 1007.9
20260507035003 25 317 0.0 0.0 0.00 0.02 0.00 89 1007.8
20260507034504 24 317 0.0 0.0 0.00 0.02 0.00 89 1007.8
20260507034003 24 317 0.0 0.0 0.00 0.02 0.00 89 1007.8
20260507033503 24 317 0.0 0.0 0.00 0.02 0.00 89 1007.7
20260507033003 24 317 0.0 0.0 0.00 0.02 0.00 89 1007.7
20260507032503 23 317 0.0 0.0 0.00 0.02 0.00 89 1007.7
20260507032003 23 317 0.0 0.0 0.00 0.02 0.00 89 1007.7
20260507031504 23 317 0.0 0.0 0.00 0.02 0.00 89 1007.6
20260507031003 23 317 0.0 0.0 0.00 0.02 0.00 89 1007.6
20260507030003 22 317 0.0 0.0 0.00 0.02 0.00 90 1007.5
20260507025003 22 317 0.0 0.0 0.00 0.02 0.00 90 1007.5
20260507024503 22 317 0.0 0.0 0.00 0.02 0.00 90 1007.5
20260507024003 22 317 0.0 0.0 0.00 0.02 0.00 90 1007.5
20260507023503 22 317 0.0 0.0 0.00 0.02 0.00 90 1007.4
20260507023003 22 317 0.0 0.0 0.00 0.02 0.00 90 1007.4
20260507022003 21 317 0.0 0.0 0.00 0.02 0.00 90 1007.4
20260507021503 21 317 0.0 0.0 0.00 0.02 0.00 90 1007.4
20260507021003 21 317 0.0 0.0 0.00 0.02 0.00 90 1007.3
20260507020003 22 317 0.0 0.0 0.00 0.02 0.00 90 1007.3
20260507015503 22 317 0.0 0.0 0.00 0.02 0.00 90 1007.2
20260507015003 22 317 0.0 0.0 0.00 0.02 0.00 90 1007.2
20260507014503 22 317 0.0 0.0 0.00 0.02 0.00 90 1007.2
20260507014004 22 317 0.0 0.0 0.00 0.02 0.00 90 1007.2
20260507013503 22 317 0.0 0.0 0.00 0.02 0.00 90 1007.2